Weather History for Wooster, OH

Change the Weather History Date:

Monday, May 27, 2013

  Actual Average Record
Temperature  
Mean Temperature 50 °F -  
Max Temperature 60 °F 68 °F 93 °F (1998)
Min Temperature 39 °F 48 °F 39 °F (1999)
Degree Days  
Heating Degree Days 16    
Moisture  
Dew Point 42 °F    
Average Humidity 69    
Maximum Humidity 86    
Minimum Humidity 52    
Precipitation  
Precipitation 0.07 in - - ()
Sea Level Pressure  
Sea Level Pressure 30.21 in    
Wind  
Wind Speed 3 mph (SE)    
Max Wind Speed 10 mph    
Max Gust Speed -    
Visibility 10 miles    
Events Rain    
Averages and records for this station are not official NWS values.
T = Trace of Precipitation, MM = Missing Value Source: NWS Daily Summary

Daily Weather History Graph

Daily Weather History Graph

Search for Another Location

Airport:

Trip Planner

Search our weather history database for the weather conditions in past years. The results will help you decide how hot, cold, wet, or windy it might be!

Date:

Astronomy

May. 27, 2013 Rise Set
Actual Time 6:00 AM EDT 8:49 PM EDT
Civil Twilight 5:28 AM EDT 9:21 PM EDT
Nautical Twilight 4:47 AM EDT 10:02 PM EDT
Astronomical Twilight 4:00 AM EDT 10:49 PM EDT
Moon 11:27 PM EDT (5/27) 8:36 AM EDT (5/27)
Length of Visible Light 15h 53m
Length of Day
14h 48m
Waning Gibbous, 91% of the Moon is Illuminated
May 27
Waning Gibbous
May 31
Last Quarter
Jun 8
New
Jun 16
First Quarter
Jun 23
Full

Hourly Weather History & Observations

Time (EDT) Temp. Dew Point Humidity Pressure Visibility Wind Dir Wind Speed Gust Speed Precip Events Conditions
12:56 AM 44.1 °F 34.0 °F 68% 30.28 in 10.0 mi Calm Calm - N/A   Clear
1:56 AM 42.1 °F 35.1 °F 76% 30.28 in 10.0 mi Calm Calm - N/A   Clear
2:56 AM 41.0 °F 34.0 °F 76% 30.28 in 10.0 mi Calm Calm - N/A   Clear
3:56 AM 39.9 °F 34.0 °F 79% 30.27 in 10.0 mi Calm Calm - N/A   Clear
4:56 AM 42.1 °F 35.1 °F 76% 30.27 in 10.0 mi Calm Calm - N/A   Clear
5:56 AM 44.1 °F 37.0 °F 76% 30.26 in 10.0 mi Calm Calm - N/A   Clear
6:56 AM 46.0 °F 37.9 °F 73% 30.27 in 10.0 mi Calm Calm - N/A   Clear
7:56 AM 48.9 °F 37.0 °F 64% 30.28 in 10.0 mi SSE 3.5 mph - N/A   Clear
8:56 AM 52.0 °F 37.0 °F 57% 30.28 in 10.0 mi ESE 5.8 mph - N/A   Clear
9:56 AM 53.1 °F 36.0 °F 52% 30.28 in 10.0 mi SSE 5.8 mph - N/A   Overcast
10:56 AM 52.0 °F 41.0 °F 66% 30.28 in 8.0 mi SSE 4.6 mph - 0.00 in Rain Light Rain
11:56 AM 52.0 °F 44.1 °F 74% 30.28 in 6.0 mi SE 4.6 mph - 0.03 in Rain Light Rain
12:56 PM 53.1 °F 46.9 °F 80% 30.26 in 8.0 mi SE 5.8 mph - 0.02 in Rain Light Rain
1:56 PM 55.0 °F 48.0 °F 77% 30.23 in 10.0 mi SSE 8.1 mph - 0.00 in   Overcast
2:56 PM 57.9 °F 46.0 °F 65% 30.20 in 10.0 mi South 10.4 mph - N/A   Mostly Cloudy
3:56 PM 59.0 °F 45.0 °F 60% 30.19 in 10.0 mi South 6.9 mph - N/A   Mostly Cloudy
4:56 PM 60.1 °F 45.0 °F 57% 30.16 in 10.0 mi SE 10.4 mph - N/A   Partly Cloudy
5:56 PM 60.1 °F 45.0 °F 57% 30.14 in 10.0 mi SE 8.1 mph - N/A   Partly Cloudy
6:56 PM 60.1 °F 45.0 °F 57% 30.11 in 10.0 mi SE 10.4 mph - N/A   Clear
7:56 PM 57.9 °F 46.0 °F 65% 30.11 in 10.0 mi SE 6.9 mph - N/A   Overcast
8:56 PM 57.9 °F 45.0 °F 62% 30.08 in 10.0 mi ESE 10.4 mph - N/A   Overcast
9:56 PM 55.9 °F 48.0 °F 75% 30.09 in 10.0 mi East 6.9 mph - 0.01 in Rain Light Rain
10:56 PM 55.0 °F 48.0 °F 77% 30.08 in 10.0 mi SE 8.1 mph - 0.00 in   Overcast
11:56 PM 54.0 °F 50.0 °F 86% 30.08 in 10.0 mi SE 5.8 mph - 0.01 in Rain Light Rain